CW1492 Weather Reports


Display with metric or nautical units.
time (UTC)temp
F
wind
direction
speed
MPH
gust
MPH
rain 1hr
in
rain 24hr
in
rain mn
in
humidity
%
barometer
mb
20260902034939 61 11 1.0 2.0 0.00 0.25 0.25 96 1019.5
20260902034841 61 105 0.0 0.0 0.00 0.27 0.27 89 1020.8
20260902033351 61 105 0.0 2.0 0.00 0.27 0.27 89 1020.9
20260902033341 62 11 0.0 0.0 0.00 0.25 0.25 96 1019.4
20260902031858 61 123 0.0 0.0 0.00 0.27 0.27 89 1020.8
20260902031818 62 11 0.0 1.0 0.00 0.25 0.25 95 1019.4
20260902030359 61 123 0.0 0.0 0.00 0.27 0.27 89 1020.9
20260902030354 62 108 0.0 2.0 0.00 0.25 0.25 95 1019.4
20260902024913 61 123 0.0 1.0 0.00 0.27 0.27 89 1020.9
20260902024829 62 267 0.0 1.0 0.00 0.25 0.25 94 1019.4
20260902023446 61 135 0.0 3.0 0.00 0.27 0.27 89 1020.9
20260902023403 63 133 1.0 7.0 0.00 0.25 0.25 93 1019.5
20260902021934 62 135 0.0 3.0 0.00 0.27 0.27 89 1020.9
20260902021816 63 127 4.0 9.0 0.00 0.25 0.25 93 1019.4
20260902020333 62 107 1.0 3.0 0.00 0.27 0.27 89 1021.0
20260902020321 63 110 4.0 10.0 0.00 0.25 0.25 93 1019.6
20260902014955 62 135 0.0 0.0 0.00 0.27 0.27 89 1020.9
20260902014823 63 150 5.0 9.0 0.00 0.25 0.25 92 1019.5
20260902013414 64 155 7.0 9.0 0.00 0.25 0.25 92 1019.4
20260902013358 62 135 1.0 2.0 0.00 0.27 0.27 89 1020.9
20260902011844 62 64 1.0 3.0 0.00 0.27 0.27 89 1020.9
20260902011824 64 128 4.0 9.0 0.00 0.25 0.25 92 1019.5
20260902010353 64 150 8.0 12.0 0.00 0.25 0.25 93 1019.4
20260902010346 62 289 0.0 0.0 0.00 0.27 0.27 89 1020.7
20260902004847 62 51 0.0 2.0 0.00 0.27 0.27 89 1020.6
20260902004825 64 149 8.0 10.0 0.00 0.25 0.25 93 1019.0
20260902003433 64 139 6.0 9.0 0.00 0.25 0.25 93 1018.9
20260902003358 62 142 1.0 3.0 0.00 0.27 0.27 89 1020.2
20260902001838 62 106 2.0 3.0 0.00 0.27 0.27 89 1019.9
20260902001829 64 150 8.0 11.0 0.00 0.25 0.25 94 1018.7
20260902000431 63 239 0.0 2.0 0.00 0.27 0.27 89 1019.8
20260902000313 64 155 9.0 12.0 0.00 0.25 0.25 93 1018.7
20260901234850 63 239 0.0 2.0 0.00 0.27 0.27 89 1019.7
20260901234811 64 122 8.0 12.0 0.00 0.25 0.25 93 1018.4
20260901233404 63 60 0.0 4.0 0.00 0.27 0.27 89 1019.6
20260901233319 64 121 7.0 9.0 0.00 0.25 0.25 95 1018.5
20260901231838 64 148 7.0 14.0 0.00 0.25 0.25 95 1018.6
20260901231825 63 166 1.0 2.0 0.00 0.27 0.27 89 1019.8
20260901230409 65 131 6.0 8.0 0.00 0.25 0.25 96 1018.4
20260901230355 64 172 0.0 6.0 0.00 0.27 0.27 89 1019.7
20260901224931 64 355 0.0 0.0 0.00 0.27 0.27 90 1019.8
20260901224830 65 101 0.0 1.0 0.00 0.25 0.25 96 1018.5
20260901223433 64 355 0.0 0.0 0.00 0.27 0.27 90 1019.7
20260901223329 65 60 0.0 1.0 0.00 0.25 0.25 95 1018.3
20260901221920 64 355 0.0 1.0 0.00 0.27 0.27 89 1019.7
20260901221905 65 93 0.0 1.0 0.00 0.25 0.25 95 1018.2
20260901220407 64 355 0.0 3.0 0.00 0.27 0.27 89 1019.5
20260901220329 65 63 1.0 2.0 0.00 0.25 0.25 95 1018.0
20260901214928 65 20 0.0 1.0 0.00 0.27 0.27 89 1019.4
20260901214911 65 111 2.0 4.0 0.00 0.25 0.25 95 1017.9
20260901214829 65 111 2.0 4.0 0.00 0.25 0.25 95 1017.9
20260901213400 65 70 1.0 3.0 0.00 0.27 0.27 89 1019.3
20260901213313 65 107 2.0 4.0 0.00 0.25 0.25 95 1017.9
20260901211849 65 340 1.0 2.0 0.00 0.27 0.27 89 1019.2
20260901211819 65 134 3.0 6.0 0.00 0.25 0.25 95 1017.9
20260901210354 65 112 1.0 3.0 0.00 0.27 0.27 89 1019.1
20260901210324 65 61 0.0 3.0 0.00 0.25 0.25 95 1017.7
20260901204933 65 128 1.0 4.0 0.00 0.25 0.25 95 1017.6
20260901204919 65 131 0.0 3.0 0.00 0.27 0.27 89 1019.1
20260901203436 65 265 0.0 2.0 0.00 0.27 0.27 89 1019.2
20260901203332 65 265 0.0 2.0 0.00 0.27 0.27 89 1019.2
20260901203324 65 120 2.0 4.0 0.00 0.25 0.25 96 1017.6
20260901201912 65 113 3.0 6.0 0.00 0.25 0.25 96 1017.5
20260901201836 65 340 1.0 2.0 0.00 0.27 0.27 89 1018.9
20260901200341 65 20 0.0 0.0 0.00 0.27 0.27 89 1018.7
20260901200337 65 127 2.0 4.0 0.00 0.25 0.25 96 1017.3
20260901194931 65 302 1.0 2.0 0.00 0.27 0.27 90 1018.9
20260901194844 65 70 2.0 4.0 0.00 0.25 0.25 97 1017.3
20260901193422 65 16 1.0 4.0 0.00 0.27 0.27 89 1018.8
20260901193326 65 76 1.0 2.0 0.00 0.25 0.25 97 1017.3
20260901191902 65 298 3.0 5.0 0.00 0.27 0.27 90 1018.8
20260901191811 64 115 2.0 6.0 0.01 0.25 0.25 98 1017.4
20260901190350 65 68 1.0 3.0 0.01 0.27 0.27 90 1018.8
20260901190338 64 117 3.0 4.0 0.01 0.25 0.25 98 1017.4
20260901184906 64 67 1.0 3.0 0.01 0.25 0.25 98 1017.5
20260901184855 65 56 2.0 3.0 0.01 0.27 0.27 90 1018.9
20260901184824 64 67 1.0 3.0 0.01 0.25 0.25 98 1017.5
20260901183409 65 280 0.0 2.0 0.01 0.27 0.27 90 1019.0
20260901183352 64 67 3.0 6.0 0.01 0.25 0.25 98 1017.5
20260901181850 64 278 0.0 3.0 0.01 0.27 0.27 90 1019.0
20260901181814 64 59 1.0 6.0 0.00 0.24 0.24 98 1017.5
20260901180421 64 279 1.0 3.0 0.01 0.26 0.26 90 1018.9
20260901180339 63 9 0.0 2.0 0.01 0.24 0.24 98 1017.5
20260901174922 63 313 1.0 2.0 0.01 0.24 0.24 98 1017.3
20260901174843 64 306 2.0 4.0 0.01 0.26 0.26 90 1018.8
20260901173428 63 313 2.0 3.0 0.01 0.24 0.24 98 1017.3
20260901173420 64 284 2.0 3.0 0.02 0.26 0.26 90 1018.8
20260901171913 64 350 1.0 2.0 0.01 0.24 0.24 98 1017.2
20260901171853 63 269 2.0 4.0 0.01 0.25 0.25 90 1018.7
20260901170332 63 297 1.0 4.0 0.03 0.25 0.25 90 1018.6
20260901170329 63 9 0.0 1.0 0.03 0.23 0.23 98 1017.2
20260901164851 63 42 0.0 2.0 0.03 0.23 0.23 98 1017.1
20260901164839 63 235 1.0 4.0 0.03 0.25 0.25 90 1018.7
20260901163341 63 232 2.0 3.0 0.05 0.24 0.24 90 1018.3
20260901163339 63 54 0.0 4.0 0.04 0.23 0.23 98 1016.9
20260901161907 63 324 1.0 2.0 0.07 0.24 0.24 90 1018.1
20260901161832 62 70 0.0 3.0 0.05 0.23 0.23 98 1016.6
20260901160355 62 323 0.0 2.0 0.02 0.20 0.20 97 1017.1
20260901160333 62 266 0.0 3.0 0.05 0.22 0.22 90 1018.1
20260901154837 63 281 2.0 4.0 0.05 0.22 0.22 90 1018.8
20260901153403 63 264 1.0 3.0 0.02 0.19 0.19 90 1018.7
20260901153319 62 304 2.0 3.0 0.01 0.19 0.19 97 1017.3
20260901151839 62 329 2.0 3.0 0.00 0.18 0.18 97 1017.3
20260901151826 64 351 1.0 4.0 0.00 0.17 0.17 90 1018.6
20260901150346 63 355 1.0 3.0 0.00 0.18 0.18 96 1017.1
20260901144842 65 34 1.0 3.0 0.00 0.18 0.18 97 1016.8
20260901144831 64 321 2.0 3.0 0.00 0.17 0.17 90 1018.2
20260901143355 64 331 0.0 2.0 0.00 0.17 0.17 90 1018.3
20260901143326 64 281 0.0 1.0 0.00 0.18 0.18 97 1016.9
20260901141904 64 343 0.0 0.0 0.00 0.17 0.17 90 1018.3
20260901141819 65 35 0.0 1.0 0.00 0.18 0.18 97 1017.0
20260901140327 63 344 0.0 0.0 0.00 0.17 0.17 90 1018.7
20260901140319 65 355 0.0 1.0 0.00 0.18 0.18 98 1017.3
20260901134918 64 239 0.0 1.0 0.00 0.17 0.17 90 1018.9
20260901134827 65 355 0.0 1.0 0.00 0.18 0.18 98 1017.4
20260901133353 64 355 1.0 2.0 0.01 0.18 0.18 97 1017.4
20260901133345 63 266 0.0 2.0 0.00 0.17 0.17 90 1018.8
20260901131852 64 9 1.0 2.0 0.01 0.18 0.18 97 1017.5
20260901131846 64 187 0.0 2.0 0.01 0.17 0.17 90 1018.9
20260901130435 64 316 2.0 3.0 0.01 0.17 0.17 90 1018.9
20260901130423 64 36 0.0 2.0 0.01 0.18 0.18 98 1017.6
20260901124920 63 316 0.0 0.0 0.01 0.17 0.17 90 1018.9
20260901124900 64 306 0.0 1.0 0.02 0.18 0.18 97 1017.6
20260901123412 63 293 0.0 2.0 0.02 0.17 0.17 97 1017.7
20260901123344 63 297 0.0 3.0 0.02 0.17 0.17 89 1019.2
20260901121852 63 323 1.0 2.0 0.08 0.17 0.17 96 1017.7
20260901120402 63 72 0.0 2.0 0.08 0.16 0.16 88 1019.0
20260901120331 63 323 1.0 2.0 0.13 0.17 0.17 96 1017.7
20260901114930 64 110 1.0 3.0 0.11 0.16 0.16 88 1019.2
20260901114824 64 77 1.0 3.0 0.15 0.16 0.16 96 1017.9
20260901113328 65 316 0.0 2.0 0.13 0.15 0.15 89 1019.4
20260901113321 65 323 2.0 2.0 0.15 0.15 0.15 95 1018.0
20260901111918 65 323 0.0 0.0 0.08 0.10 0.10 89 1019.1
20260901111908 65 68 0.0 1.0 0.09 0.09 0.09 96 1017.6
20260901110413 65 108 0.0 2.0 0.04 0.04 0.04 96 1017.6
20260901110340 65 262 0.0 0.0 0.08 0.08 0.08 88 1019.0
20260901104843 65 262 0.0 0.0 0.04 0.04 0.04 88 1019.0
20260901104814 65 135 0.0 3.0 0.00 0.00 0.00 95 1017.6
20260901103330 65 185 0.0 0.0 0.02 0.02 0.02 86 1018.7
20260901103318 65 122 0.0 2.0 0.00 0.00 0.00 95 1017.3
20260901101900 65 205 0.0 1.0 0.00 0.00 0.00 95 1017.1
20260901101852 65 185 0.0 0.0 0.02 0.02 0.02 84 1018.6
20260901100419 65 185 0.0 0.0 0.00 0.00 0.00 82 1018.5
20260901100321 66 128 1.0 1.0 0.00 0.00 0.00 94 1017.1
20260901094910 65 185 0.0 0.0 0.00 0.00 0.00 80 1018.4
20260901094822 66 128 0.0 3.0 0.00 0.00 0.00 94 1017.0
20260901093354 65 185 0.0 1.0 0.00 0.00 0.00 79 1018.3
20260901093349 66 136 3.0 7.0 0.00 0.00 0.00 94 1017.0
20260901091851 66 115 4.0 5.0 0.00 0.00 0.00 94 1017.3
20260901091840 65 99 0.0 0.0 0.00 0.00 0.00 78 1018.6
20260901090421 66 144 0.0 2.0 0.00 0.00 0.00 93 1017.3
20260901090342 65 99 0.0 2.0 0.00 0.00 0.00 77 1018.6
20260901084928 65 162 0.0 2.0 0.00 0.00 0.00 76 1018.6
20260901084815 66 144 0.0 2.0 0.00 0.00 0.00 93 1017.3
20260901083416 65 237 0.0 2.0 0.00 0.00 0.00 75 1018.7
20260901083407 66 146 1.0 6.0 0.00 0.00 0.00 93 1017.3
20260901081846 66 130 0.0 3.0 0.00 0.00 0.00 93 1017.2
20260901081836 66 90 0.0 2.0 0.00 0.00 0.00 74 1018.7
20260901080350 66 90 0.0 1.0 0.00 0.00 0.00 73 1018.4
20260901080348 66 151 6.0 10.0 0.00 0.00 0.00 93 1017.2
20260901074825 66 162 2.0 6.0 0.00 0.00 0.00 72 1018.2
20260901074823 66 146 8.0 10.0 0.00 0.00 0.00 91 1017.0
20260901073332 66 116 3.0 4.0 0.00 0.00 0.00 72 1018.5
20260901073326 67 150 6.0 9.0 0.00 0.00 0.00 91 1017.3
20260901071902 66 137 1.0 2.0 0.00 0.00 0.00 71 1018.7
20260901071847 68 137 5.0 10.0 0.00 0.00 0.00 89 1017.3
20260901070358 67 110 0.0 0.0 0.00 0.00 0.00 70 1019.0
20260901070347 68 155 6.0 8.0 0.00 0.00 0.00 88 1017.7
20260901064910 67 87 1.0 4.0 0.00 0.00 0.00 70 1019.2
20260901064846 68 146 5.0 7.0 0.00 0.00 0.00 88 1017.9
20260901063355 67 104 1.0 3.0 0.00 0.00 0.00 69 1019.2
20260901063331 67 150 5.0 6.0 0.00 0.00 0.00 90 1017.9
20260901061842 67 87 2.0 3.0 0.00 0.00 0.00 69 1019.2
20260901061833 66 101 0.0 0.0 0.00 0.00 0.00 90 1018.0
20260901060432 67 85 0.0 1.0 0.00 0.00 0.00 69 1019.3
20260901060316 67 101 0.0 0.0 0.00 0.00 0.00 90 1018.1
20260901054825 67 86 3.0 5.0 0.00 0.00 0.00 68 1019.2
20260901054817 67 101 0.0 0.0 0.00 0.00 0.00 88 1017.9
20260901053419 67 83 0.0 2.0 0.00 0.00 0.00 68 1019.4
20260901053325 67 101 0.0 0.0 0.00 0.00 0.00 88 1018.1
20260901051857 67 101 0.0 0.0 0.00 0.00 0.00 87 1018.1
20260901051838 67 129 0.0 0.0 0.00 0.00 0.00 68 1019.4
20260901051815 67 101 0.0 0.0 0.00 0.00 0.00 87 1018.1
20260901050415 68 129 0.0 1.0 0.00 0.00 0.00 67 1019.3
20260901050338 68 101 0.0 0.0 0.00 0.00 0.00 86 1018.0
20260901044937 68 129 0.0 2.0 0.00 0.00 0.00 67 1019.3
20260901044919 69 101 0.0 5.0 0.00 0.00 0.00 85 1017.8
20260901043339 69 128 2.0 9.0 0.00 0.00 0.00 85 1017.9
20260901041833 68 153 2.0 5.0 0.00 0.00 0.00 86 1017.9
20260901041824 68 125 1.0 3.0 0.00 0.00 0.00 66 1019.2
20260901040414 68 85 0.0 2.0 0.00 0.00 0.00 66 1019.3
20260901040330 69 142 0.0 0.0 0.00 0.00 0.00 83 1017.9